Location: Astroquest
(35.1187°N, 89.7105°W)
Time: 19:48:38
(UTC-06:00)

Hubble Space Telescope - Visible Passes

Search period start: 25 February 2018 00:00
Search period end: 07 March 2018 00:00
Orbit: 537 x 541 km, 28.5° (Epoch: 24 February)

Date Brightness Start Highest point End Pass type
(mag) Time Alt. Az. Time Alt. Az. Time Alt. Az.
25 Feb 3.7 03:53:32 12° ESE 03:53:32 12° ESE 03:54:00 10° ESE visible
25 Feb 2.1 05:28:54 18° SW 05:31:10 29° S 05:34:46 10° SE visible
26 Feb 2.1 05:19:12 21° SW 05:20:49 27° S 05:24:19 10° SE visible
27 Feb 2.2 05:09:32 22° SW 05:10:28 24° SSW 05:13:50 10° SE visible
28 Feb 2.3 04:59:53 21° SSW 05:00:07 21° SSW 05:03:17 10° SE visible
01 Mar 2.7 04:50:18 18° S 04:50:18 18° S 04:52:39 10° SSE visible
02 Mar 3.1 04:40:46 14° S 04:40:46 14° S 04:41:53 10° SSE visible
